This is the latest recevied weather packets stored in our database for station/object K0WXC-1. If no packets are shown the sender has not sent any weather packets the latest 10 day(s).
| Time | Temp. | Humidity | Pressure | Rain* | Wind** | Luminosity | Snow |
|---|---|---|---|---|---|---|---|
| 1777182628 | 15.56° C | 54% | 999.6 hPa | 0 mm | 1.79 m/s, 79° | - | - |
| 1777182568 | 15.56° C | 54% | 999.6 hPa | 0 mm | 1.79 m/s, 79° | - | - |
| 1777182508 | 15.56° C | 54% | 999.6 hPa | 0 mm | 1.79 m/s, 79° | - | - |
| 1777182448 | 15.56° C | 54% | 999.6 hPa | 0 mm | 1.79 m/s, 79° | - | - |
| 1777182388 | 15.56° C | 55% | 999.3 hPa | 0 mm | 0.89 m/s, 137° | - | - |
| 1777182328 | 15.56° C | 55% | 999.3 hPa | 0 mm | 0.89 m/s, 137° | - | - |
| 1777182268 | 15.56° C | 55% | 999.3 hPa | 0 mm | 0.89 m/s, 137° | - | - |
| 1777182208 | 15.56° C | 55% | 999.3 hPa | 0 mm | 0.89 m/s, 137° | - | - |
| 1777182148 | 15.56° C | 55% | 999.3 hPa | 0 mm | 0.89 m/s, 137° | - | - |
| 1777182088 | 15.56° C | 55% | 999.3 hPa | 0 mm | 0.89 m/s, 137° | - | - |
| 1777182028 | 15.56° C | 55% | 999.2 hPa | 0 mm | 1.79 m/s, 106° | - | - |
| 1777181968 | 15.56° C | 55% | 999.2 hPa | 0 mm | 1.79 m/s, 106° | - | - |
| 1777181908 | 15.56° C | 55% | 999.2 hPa | 0 mm | 1.79 m/s, 106° | - | - |
| 1777181848 | 15.56° C | 55% | 999.2 hPa | 0 mm | 1.79 m/s, 106° | - | - |
| 1777181788 | 15.56° C | 55% | 999.2 hPa | 0 mm | 1.79 m/s, 106° | - | - |
| 1777181728 | 15.56° C | 55% | 999.3 hPa | 0 mm | 1.79 m/s, 108° | - | - |
| 1777181668 | 15.56° C | 55% | 999.3 hPa | 0 mm | 1.79 m/s, 108° | - | - |
| 1777181608 | 15.56° C | 55% | 999.3 hPa | 0 mm | 1.79 m/s, 108° | - | - |
| 1777181548 | 15.56° C | 55% | 999.3 hPa | 0 mm | 1.79 m/s, 108° | - | - |
| 1777181488 | 15.56° C | 55% | 999.3 hPa | 0 mm | 1.79 m/s, 108° | - | - |
| 1777181428 | 15.56° C | 55% | 999.1 hPa | 0 mm | 1.79 m/s, 88° | - | - |
| 1777181368 | 15.56° C | 55% | 999.1 hPa | 0 mm | 1.79 m/s, 88° | - | - |
| 1777181308 | 15.56° C | 55% | 999.1 hPa | 0 mm | 1.79 m/s, 88° | - | - |
| 1777181248 | 15.56° C | 55% | 999.1 hPa | 0 mm | 1.79 m/s, 88° | - | - |
| 1777181188 | 15.56° C | 56% | 999.2 hPa | 0 mm | 1.79 m/s, 108° | - | - |
* Rain latest hour (hover to see other rain measurements)
** Current wind speed in m/s (hover to see current wind gust speed)